Location: Mason
(37.5237°N, 89.2543°W)
Time: 18:35:23
(UTC+00:00)

CZ-4B R/B - Pass Details

Date: 08 December 2021
Orbit: 378 x 442 km, 97.6° (Epoch: 16 January)

Event Time Altitude Azimuth Distance (km) Brightness Sun altitude
Rises 12:23:00 0° 156° (SSE) 2,422 5.9 -7.3°
Reaches altitude 10° 12:25:04 10° 151° (SSE) 1,549 5.0 -7.0°
Maximum altitude 12:28:18 50° 75° (ENE) 561 2.3 -6.4°
Drops below altitude 10° 12:31:29 10° 359° (N) 1,530 3.9 -5.8°
Sets 12:33:30 0° 354° (N) 2,390 4.8 -5.4°
